Volver al catálogo

FENGYUN 1C DEB

ActivoPO
NORAD 31888·DEBRIS·🇨🇳 China

Lanzado May 10, 1999 desde Taiyuan Satellite Launch Center

Loading…

Próximos Pases (próximas 24 horas)

TLE

ActualizadoSource: Space-Track

Época: Sep 13, 2026, 02:19 UTC

1 31888U 99025CKP 26256.09707266  .00003250  00000-0  11207-2 0  9994
2 31888  99.1623 204.2340 0018583 129.6850 230.5976 14.36545939995735

Sigue FENGYUN 1C DEB en tiempo real con AllMySat

Download on the App Store